Погода в Куминском

Россия / Ханты-Мансийский автономный округ - Югра     58°48′26″N   65°58′18″E
темп.,
°C
ветер,
м/с
пор.,
м/с
влажн.,
%
обл.,
%
осадки,
мм/ч
давл.,
гПа
погр.,
м
22 октября, пт
пт2223:00−3з25915 0.0 100492
02:00−4юз259145 0.0 100290
05:00−3ю3885100 0.0 1001222
08:00−2ююз41182100 0.0 999467
11:000ююз598396 0.1 999629
14:00+1ююз3996100 0.2 999634
17:00+2ююз41095100 0.3 998545
20:00+2ююз41298100 0.0 998405
23 октября, сб
сб2323:00+4ю51597100 0.9 996552
02:00+6ююз51497100 0.3 994706
05:00+7юз51495100 2.6 993880
08:00+8зюз61389100 0.2 994938
11:00+10зюз7128197 0.3 9961140
14:00+9зюз61481100 0.1 9981084
17:00+8зюз7147099 0.1 9991123
20:00+6зюз6137835 0.0 1002885
24 октября, вс
вс2423:00+5зюз6137342 0.0 1004945
02:00+5зюз6138028 0.0 1006948
05:00+4зюз512825 0.0 1008745
08:00+3зюз412875 0.0 1009569
11:00+6зюз497883 0.0 1010756
14:00+7юз367299 0.0 1010899
17:00+5ююв2689100 0.0 1009195
20:00+5юв3894100 1.9 1005916
25 октября, пн
пн2523:00+5ююв3997100 5.1 1001520
02:00+6зюз71286100 0.8 1000870
05:00+4з51093100 0.9 10051011
08:00+4зюз41077100 0.0 1006888
11:00+5зюз4872100 0.0 1008897
14:00+6юз477299 0.1 10091030
17:00+4юз3780100 0.1 1009221
20:00+4юз3976100 0.0 1009548
26 октября, вт
вт2623:00+3ююз3885100 0.1 1007410
02:00+2зюз3788100 0.0 1006458
05:000сз51096100 0.6 1007589
08:00−1сз51082100 0.5 10091084
11:00−1зсз6117484 0.5 10101134
14:000зсз6116987 0.1 10121428
17:00−1зсз510725 0.2 1015722
20:00−3з310775 0.0 1017549